humankinetics.com alexa rank chart, humankinetics.com alexa rank daily changes

humankinetics.com alexa rank chart, humankinetics.com alexa rank daily changes

humankinetics.com
Actual rank:
44 879

RANK HISTORY

Date Rank Diff
2017/08/17 44 879 -145
2017/08/16 45 024 +376
2017/08/15 44 648 -827
2017/08/14 45 475 -54
2017/08/13 45 529 -30
2017/08/12 45 559 +82
2017/08/11 45 477 +480
2017/08/10 44 997 +9
2017/08/09 44 988 -384
2017/08/08 45 372 -710
2017/08/07 46 082 +834
2017/08/06 45 248 -147
2017/08/05 45 395 +130
2017/08/04 45 265 -302
2017/08/03 45 567 +144
2017/08/02 45 423 -658
2017/08/01 46 081 -746
2017/07/31 46 827 +751
2017/07/30 46 076 +200
2017/07/29 45 876 +307
2017/07/28 45 569 +89
2017/07/27 45 480 -678
2017/07/26 46 158 -237
2017/07/25 46 395 +294
2017/07/24 46 101 +1 483
2017/07/23 44 618 +231
2017/07/22 44 387 +38
2017/07/21 44 349 -155
2017/07/20 44 504 -403
2017/07/19 44 907 -98
2017/07/18 45 005 +818
2017/07/17 44 187 +214
2017/07/16 43 973 -247
2017/07/15 44 220 +362
2017/07/14 43 858 +336
2017/07/13 43 522 +384
2017/07/12 43 138 -503
2017/07/11 43 641 -302
2017/07/10 43 943 +282
2017/07/09 43 661 +230
2017/07/08 43 431 +546
2017/07/07 42 885 +45
2017/07/06 42 840 +376
2017/07/05 42 464 -14
2017/07/04 42 478 +56
2017/07/03 42 422 +201
2017/07/02 42 221 +204
2017/07/01 42 017 -434
2017/06/30 42 451 +87
2017/06/29 42 364 -289
2017/06/28 42 653 -147
2017/06/27 42 800 +501
2017/06/26 42 299 +749
2017/06/25 41 550 +37
2017/06/24 41 513 -995
2017/06/23 42 508 -45
2017/06/22 42 553 +380
2017/06/21 42 173 +290
2017/06/20 41 883 +505
2017/06/19 41 378 -231
2017/06/18 41 609 +204
2017/06/17 41 405

WIDGET FOR YOUR SITE

DOMAINS WITH THE NEAREST RANK

Domain Rank
trovit.pt 44 874
fintech-adv.com 44 875
esshangpu.com 44 876
donki.com 44 877
irantypist.com 44 878
humankinetics.com 44 879
cacaoweb.org 44 880
latina.pe 44 881
alot.com 44 882
ryver.com 44 883
2-d.jp 44 884

DOMAINS WITH THE NEAREST RANK BY TLD .com

Domain Rank
adpgtrack.com 44 873
fintech-adv.com 44 875
esshangpu.com 44 876
donki.com 44 877
irantypist.com 44 878
humankinetics.com 44 879
alot.com 44 882
ryver.com 44 883
carlsguides.com 44 885
medpagetoday.com 44 887
qmov.com 44 891